Victoria, TX

2:35 AM CST on December 09, 2019 (GMT -0600)
Victoria Regional

Weather History for KVCT - October, 2019

Change the Weather History Date:

Sunday, October 6, 2019

  Actual Average Record
Temperature  
Mean Temperature 82 °F 75 °F  
Max Temperature 93 °F 86 °F 101 °F (1925)
Min Temperature 69 °F 64 °F 44 °F (1932)
Degree Days  
Heating Degree Days 0 0  
Month to date heating degree days 0 0  
Since 1 July heating degree days 0 1  
Cooling Degree Days 16 10  
Month to date cooling degree days 104 63  
Year to date cooling degree days 3369 2861  
Growing Degree Days 32 (Base 50)    
Moisture  
Dew Point 70 °F    
Average Humidity 80    
Maximum Humidity 97    
Minimum Humidity 39    
Precipitation  
Precipitation 0.00 in 0.15 in 3.12 in (1998)
Month to date precipitation 0.04 0.86  
Year to date precipitation 19.40 31.89  
Snow  
Snow 0.00 in 0.00 in 0.00 in (2002)
Month to date snowfall 0.0 0.0  
Since 1 July snowfall 0.0 0.0  
Since 1 September snowfall 0.0 0.0  
Snow Depth 0.00 in    
Sea Level Pressure  
Sea Level Pressure 29.96 in    
Wind  
Wind Speed 3 mph ()    
Max Wind Speed 16 mph    
Max Gust Speed 22 mph    
Visibility 5.4 miles    
Events Fog    
T = Trace of Precipitation, MM = Missing Value Source: Averaged Metar Reports

Daily Weather History Graph

Daily Weather History Graph

Search for Another Location

Airport or City:

Astronomy

Oct. 06, 2019 Rise Set
Actual Time 7:23 AM CDT 7:07 PM CDT
Civil Twilight 6:59 AM CDT 7:31 PM CDT
Nautical Twilight 6:32 AM CDT 7:58 PM CDT
Astronomical Twilight 6:04 AM CDT 8:26 PM CDT
Moon 3:13 PM CDT (10/6) 12:58 AM CDT (10/6)
Length of Visible Light 12h 31m
Length of Day
11h 44m
First Quarter, 60% of the Moon is Illuminated
Oct 6
First Quarter
Oct 13
Full
Oct 21
Last Quarter
Oct 27
New
Nov 4
First Quarter

Hourly Weather History & Observations

Time (CDT) Temp. Heat Index Dew Point Humidity Pressure Visibility Wind Dir Wind Speed Gust Speed Precip Events Conditions
12:51 AM 75.0 °F - 72.0 °F 90% 29.93 in 7.0 mi ESE 4.6 mph - N/A   Clear
1:51 AM 75.9 °F - 72.0 °F 87% 29.94 in 7.0 mi SSE 3.5 mph - N/A   Clear
2:51 AM 73.0 °F - 71.1 °F 93% 29.94 in 4.0 mi Calm Calm - N/A   Clear
3:51 AM 71.1 °F - 69.1 °F 93% 29.93 in 3.0 mi Calm Calm - N/A   Clear
4:07 AM 71.1 °F - 69.1 °F 93% 29.93 in 2.5 mi NNE 3.5 mph - N/A   Clear
4:51 AM 70.0 °F - 68.0 °F 93% 29.93 in 1.8 mi Calm Calm - N/A   Clear
5:16 AM 69.1 °F - 66.9 °F 93% 29.93 in 1.0 mi NNW 3.5 mph - N/A   Mist
5:26 AM 69.1 °F - 66.9 °F 93% 29.93 in 1.5 mi NNW 4.6 mph - N/A   Clear
5:39 AM 71.1 °F - 68.0 °F 90% 29.93 in 2.5 mi North 4.6 mph - N/A   Clear
5:51 AM 71.1 °F - 69.1 °F 93% 29.94 in 3.0 mi NNE 4.6 mph - N/A   Clear
6:26 AM 71.1 °F - 69.1 °F 93% 29.95 in 2.5 mi NNE 4.6 mph - N/A   Clear
6:40 AM 71.1 °F - 69.1 °F 93% 29.95 in 2.0 mi NNE 3.5 mph - N/A   Scattered Clouds
6:51 AM 71.1 °F - 69.1 °F 93% 29.95 in 1.8 mi NNE 4.6 mph - N/A   Mostly Cloudy
6:53 AM 71.1 °F - 69.1 °F 93% 29.96 in 1.2 mi NNE 3.5 mph - N/A   Mostly Cloudy
7:02 AM 71.1 °F - 69.1 °F 93% 29.96 in 0.5 mi NNE 3.5 mph - N/A Fog Fog
7:24 AM 71.1 °F - 70.0 °F 96% 29.96 in 0.2 mi NE 3.5 mph - N/A Fog Fog
7:51 AM 71.1 °F - 69.1 °F 93% 29.96 in 0.2 mi NNE 3.5 mph - N/A Fog Fog
8:26 AM 73.0 °F - 71.1 °F 93% 29.97 in 0.5 mi North 3.5 mph - N/A Fog Fog
8:41 AM 73.0 °F - 71.1 °F 93% 29.98 in 1.0 mi Calm Calm - N/A   Overcast
8:45 AM 73.4 °F - 71.6 °F 94% 29.98 in 0.8 mi NNE 3.5 mph - N/A   Overcast
8:51 AM 73.9 °F - 72.0 °F 93% 29.98 in 0.5 mi NNE 3.5 mph - N/A Fog Fog
9:01 AM 75.0 °F - 73.0 °F 94% 29.98 in 0.5 mi NE 3.5 mph - N/A Fog Fog
9:11 AM 75.0 °F - 73.9 °F 96% 29.99 in 1.0 mi NNE 3.5 mph - N/A   Overcast
9:25 AM - - - N/A% 29.99 in 4.0 mi NNE 3.5 mph - N/A   Haze
9:41 AM 80.1 °F 85.1 °F 75.0 °F 85% 30.00 in 8.0 mi NE 4.6 mph - N/A   Partly Cloudy
9:51 AM 81.0 °F 86.7 °F 75.0 °F 82% 30.00 in 10.0 mi ENE 4.6 mph - N/A   Partly Cloudy
10:51 AM 84.0 °F 89.6 °F 72.0 °F 67% 30.01 in 10.0 mi Calm Calm - N/A   Clear
11:16 AM 87.1 °F 93.6 °F 72.0 °F 61% 30.00 in 10.0 mi Calm Calm - N/A   Mostly Cloudy
11:27 AM 86.0 °F 91.5 °F 71.1 °F 61% 30.00 in 10.0 mi Calm Calm - N/A   Overcast
11:51 AM 87.1 °F 91.3 °F 69.1 °F 55% 29.99 in 10.0 mi Calm Calm - N/A   Mostly Cloudy
12:51 PM 89.1 °F 92.1 °F 66.9 °F 48% 29.97 in 10.0 mi Variable 3.5 mph - N/A   Clear
1:51 PM 91.9 °F 94.1 °F 64.9 °F 41% 29.95 in 10.0 mi SE 11.5 mph - N/A   Clear
2:51 PM 93.0 °F 95.0 °F 64.9 °F 39% 29.92 in 10.0 mi Variable 6.9 mph - N/A   Clear
3:51 PM 93.0 °F 97.4 °F 68.0 °F 44% 29.91 in 10.0 mi SE 11.5 mph 21.9 mph N/A   Partly Cloudy
4:51 PM 91.0 °F 96.6 °F 70.0 °F 50% 29.90 in 10.0 mi SE 10.4 mph - N/A   Clear
5:51 PM 87.1 °F 92.0 °F 70.0 °F 57% 29.90 in 10.0 mi SE 13.8 mph - N/A   Clear
6:51 PM 84.0 °F 87.8 °F 69.1 °F 61% 29.90 in 10.0 mi SE 9.2 mph - N/A   Clear
7:51 PM 80.1 °F 82.9 °F 69.1 °F 69% 29.92 in 10.0 mi SE 9.2 mph - N/A   Clear
8:51 PM 78.1 °F - 70.0 °F 76% 29.95 in 10.0 mi SE 6.9 mph - N/A   Clear
9:51 PM 75.9 °F - 70.0 °F 82% 29.96 in 10.0 mi Calm Calm - N/A   Clear
10:51 PM 73.9 °F - 70.0 °F 87% 29.97 in 10.0 mi ESE 4.6 mph - N/A   Clear
11:51 PM 73.0 °F - 70.0 °F 90% 29.97 in 10.0 mi SSE 4.6 mph - N/A   Clear